FW8359 Weather Reports


time (UTC)temp
C
wind
direction
speed
KPH
gust
KPH
rain 1hr
cm
rain 24hr
cm
rain mn
cm
humidity
%
barometer
mb
20260503184952 14 127 3.2 4.8 0.00 0.00 0.00 35 1013.6
20260503184448 14 218 6.4 9.7 0.00 0.00 0.00 35 1014.0
20260503183945 14 218 6.4 9.7 0.00 0.00 0.00 35 1014.1
20260503183442 14 211 4.8 9.7 0.00 0.00 0.00 35 1013.8
20260503182938 15 88 6.4 9.7 0.00 0.00 0.00 37 1014.0
20260503182437 14 124 3.2 4.8 0.00 0.00 0.00 36 1013.8
20260503181934 13 355 12.9 16.1 0.00 0.00 0.00 35 1013.8
20260503181431 13 164 11.3 14.5 0.00 0.00 0.00 36 1014.1
20260503180927 14 100 4.8 4.8 0.00 0.00 0.00 37 1014.2
20260503180427 13 229 4.8 6.4 0.00 0.00 0.00 36 1014.2
20260503175922 13 140 0.0 1.6 0.00 0.00 0.00 37 1014.1
20260503175421 13 336 8.0 11.3 0.00 0.00 0.00 36 1014.1
20260503174916 14 284 11.3 16.1 0.00 0.00 0.00 35 1014.4
20260503174414 13 340 6.4 6.4 0.00 0.00 0.00 37 1014.1
20260503173909 13 304 4.8 9.7 0.00 0.00 0.00 36 1014.2
20260503173405 12 16 3.2 4.8 0.00 0.00 0.00 38 1014.4
20260503172902 12 187 4.8 6.4 0.00 0.00 0.00 38 1014.5
20260503172400 13 279 8.0 11.3 0.00 0.00 0.00 36 1014.4
20260503171855 12 308 9.7 11.3 0.00 0.00 0.00 37 1014.7
20260503171352 12 98 1.6 4.8 0.00 0.00 0.00 39 1014.4
20260503170850 12 314 11.3 16.1 0.00 0.00 0.00 37 1014.4
20260503170346 12 312 8.0 11.3 0.00 0.00 0.00 38 1014.4
20260503150738 10 259 8.0 11.3 0.00 0.00 0.00 39 1015.8
20260503150234 9 314 12.9 17.7 0.00 0.00 0.00 40 1015.6
20260503140159 8 86 4.8 6.4 0.00 0.00 0.00 47 1015.7
20260503131128 7 197 4.8 4.8 0.00 0.00 0.00 53 1016.2
20260503130626 7 179 3.2 4.8 0.00 0.00 0.00 55 1015.9
20260503130124 7 102 0.0 1.6 0.00 0.00 0.00 55 1016.0
20260503110516 1 119 0.0 0.0 0.00 0.00 0.00 73 1015.3
20260503090408 1 103 0.0 0.0 0.00 0.00 0.00 73 1014.7
20260503081335 1 102 0.0 1.6 0.00 0.00 0.00 71 1014.6
20260503080832 1 122 0.0 0.0 0.00 0.00 0.00 70 1014.4
20260503080329 1 126 0.0 0.0 0.00 0.00 0.00 68 1014.3
20260503072805 2 123 0.0 0.0 0.00 0.00 0.00 67 1014.2
20260503072305 2 115 0.0 0.0 0.00 0.00 0.00 65 1014.2
20260503071758 2 115 0.0 0.0 0.00 0.00 0.00 66 1014.1
20260503071255 2 111 0.0 0.0 0.00 0.00 0.00 64 1014.2
20260503070751 2 173 1.6 1.6 0.00 0.00 0.00 65 1014.0
20260503070250 2 123 0.0 1.6 0.00 0.00 0.00 65 1014.0
20260503060215 3 50 1.6 1.6 0.00 0.00 0.00 64 1014.0
20260503054701 3 296 4.8 6.4 0.00 0.00 0.00 63 1013.8
20260503054159 3 261 1.6 1.6 0.00 0.00 0.00 63 1013.9
20260503053656 3 239 3.2 4.8 0.00 0.00 0.00 63 1014.0
20260503053155 4 146 0.0 0.0 0.00 0.00 0.00 62 1014.1
20260503052651 4 79 1.6 1.6 0.00 0.00 0.00 62 1014.0
20260503052147 4 32 0.0 1.6 0.00 0.00 0.00 61 1013.9
20260503051643 4 123 0.0 0.0 0.00 0.00 0.00 62 1014.0
20260503051141 5 326 0.0 1.6 0.00 0.00 0.00 61 1014.0
20260503050637 5 83 1.6 1.6 0.00 0.00 0.00 61 1014.3
20260503050134 5 75 1.6 1.6 0.00 0.00 0.00 61 1014.3
20260503045632 5 112 1.6 1.6 0.00 0.00 0.00 60 1014.1
20260503045129 5 158 1.6 1.6 0.00 0.00 0.00 61 1014.2
20260503044625 5 274 4.8 9.7 0.00 0.00 0.00 60 1014.3
20260503044123 5 113 3.2 4.8 0.00 0.00 0.00 60 1014.2
20260503043619 5 120 0.0 1.6 0.00 0.00 0.00 61 1014.4
20260503043116 5 270 6.4 9.7 0.00 0.00 0.00 61 1014.4
20260503042613 5 131 0.0 0.0 0.00 0.00 0.00 63 1014.1
20260503042109 5 107 0.0 0.0 0.00 0.00 0.00 62 1014.3
20260503041605 5 69 3.2 4.8 0.00 0.00 0.00 63 1014.3
20260503041103 5 184 3.2 4.8 0.00 0.00 0.00 63 1014.3
20260503040600 5 59 1.6 1.6 0.00 0.00 0.00 63 1014.3
20260503040057 5 100 1.6 1.6 0.00 0.00 0.00 63 1014.5
20260503035554 5 280 3.2 4.8 0.00 0.00 0.00 64 1014.3
20260503035052 5 139 0.0 0.0 0.00 0.00 0.00 64 1014.4
20260503034549 5 171 0.0 1.6 0.00 0.00 0.00 64 1014.5
20260503034046 5 156 0.0 1.6 0.00 0.00 0.00 64 1014.5
20260503033543 5 85 1.6 1.6 0.00 0.00 0.00 62 1014.4
20260503033041 5 151 0.0 1.6 0.00 0.00 0.00 63 1014.3
20260503032539 5 11 3.2 4.8 0.00 0.00 0.00 63 1014.5
20260503032037 5 69 1.6 1.6 0.00 0.00 0.00 63 1014.4
20260503031534 5 114 0.0 0.0 0.00 0.00 0.00 63 1014.4
20260503031031 5 111 1.6 1.6 0.00 0.00 0.00 64 1014.5
20260503030527 5 113 0.0 0.0 0.00 0.00 0.00 64 1014.7
20260503030025 5 140 0.0 0.0 0.00 0.00 0.00 65 1014.5
20260503025521 5 308 3.2 4.8 0.00 0.00 0.00 64 1014.6
20260503025019 5 98 0.0 0.0 0.00 0.00 0.00 64 1014.9
20260503024515 5 356 4.8 6.4 0.00 0.00 0.00 63 1014.7
20260503024013 5 301 1.6 1.6 0.00 0.00 0.00 63 1014.9
20260503023509 5 143 1.6 4.8 0.00 0.00 0.00 64 1015.1
20260503023007 5 307 4.8 4.8 0.00 0.00 0.00 64 1015.0
20260503022502 5 344 4.8 4.8 0.00 0.00 0.00 64 1014.9
20260503021957 5 151 0.0 1.6 0.00 0.00 0.00 65 1014.8
20260503021454 5 136 0.0 1.6 0.00 0.00 0.00 65 1014.9
20260503020951 5 146 0.0 1.6 0.00 0.00 0.00 66 1015.0
20260503020449 5 140 0.0 0.0 0.00 0.00 0.00 66 1014.8
20260503015945 5 115 0.0 0.0 0.00 0.00 0.00 67 1014.7
20260503015442 5 158 0.0 0.0 0.00 0.00 0.00 67 1014.8
20260503014938 5 160 1.6 4.8 0.00 0.00 0.00 68 1014.5
20260503014435 5 90 1.6 1.6 0.00 0.00 0.00 67 1014.4
20260503013933 5 144 1.6 1.6 0.00 0.00 0.00 68 1014.6
20260503013430 5 157 1.6 1.6 0.00 0.00 0.00 67 1014.4
20260503012927 5 282 6.4 9.7 0.00 0.00 0.00 67 1014.6
20260503012425 5 344 4.8 6.4 0.00 0.00 0.00 67 1014.4
20260503011921 5 147 1.6 1.6 0.00 0.00 0.00 67 1014.5
20260503011418 5 99 0.0 0.0 0.00 0.00 0.00 68 1014.5
20260503010915 6 133 0.0 0.0 0.00 0.00 0.00 68 1014.2
20260503010412 6 202 4.8 6.4 0.00 0.00 0.00 67 1014.3
20260503005909 6 85 0.0 1.6 0.00 0.00 0.00 67 1014.2
20260503005407 6 149 0.0 1.6 0.00 0.00 0.00 67 1014.4
20260503004902 6 303 3.2 4.8 0.00 0.00 0.00 67 1014.3
20260503004400 6 85 0.0 1.6 0.00 0.00 0.00 67 1014.2
20260503003857 6 46 3.2 4.8 0.00 0.00 0.00 67 1014.2
20260503003354 6 235 3.2 4.8 0.00 0.00 0.00 66 1013.9
20260503002851 6 298 6.4 9.7 0.00 0.00 0.00 66 1014.1
20260503002348 6 163 3.2 4.8 0.00 0.00 0.00 66 1013.8
20260503001844 6 88 3.2 4.8 0.00 0.00 0.00 65 1013.9
20260503001341 6 290 4.8 4.8 0.00 0.00 0.00 66 1013.8
20260503000838 6 61 1.6 1.6 0.00 0.00 0.00 65 1013.7
20260503000336 6 109 0.0 0.0 0.00 0.00 0.00 66 1013.8
20260502235833 6 132 0.0 0.0 0.00 0.00 0.00 66 1013.6
20260502235330 6 136 0.0 0.0 0.00 0.00 0.00 66 1013.8
20260502234826 6 346 8.0 9.7 0.00 0.00 0.00 65 1013.9
20260502234323 6 164 3.2 4.8 0.00 0.00 0.00 65 1013.7
20260502233820 6 103 0.0 1.6 0.00 0.00 0.00 66 1013.7
20260502233316 6 142 1.6 1.6 0.00 0.00 0.00 65 1013.6
20260502232813 6 129 0.0 1.6 0.00 0.00 0.00 65 1013.8
20260502232310 6 150 0.0 1.6 0.00 0.00 0.00 64 1013.7
20260502231806 6 270 3.2 4.8 0.00 0.00 0.00 64 1013.6
20260502231304 6 276 6.4 6.4 0.00 0.00 0.00 64 1013.6
20260502230802 6 297 3.2 4.8 0.00 0.00 0.00 64 1013.4
20260502230300 7 153 3.2 6.4 0.00 0.00 0.00 64 1013.4
20260502225756 7 10 3.2 6.4 0.00 0.00 0.00 64 1013.3
20260502225253 7 262 4.8 6.4 0.00 0.00 0.00 64 1013.7
20260502224749 7 109 3.2 4.8 0.00 0.00 0.00 66 1013.7
20260502224246 7 334 3.2 4.8 0.00 0.00 0.00 67 1013.6
20260502223744 7 7 9.7 14.5 0.00 0.00 0.00 66 1013.4
20260502223242 7 103 0.0 1.6 0.00 0.00 0.00 66 1013.4
20260502222739 7 228 4.8 6.4 0.00 0.00 0.00 66 1013.4
20260502222236 7 157 1.6 4.8 0.00 0.00 0.00 65 1013.4
20260502221731 7 304 3.2 4.8 0.00 0.00 0.00 64 1013.4
20260502221229 7 299 3.2 4.8 0.00 0.00 0.00 64 1013.4
20260502220725 7 110 0.0 0.0 0.00 0.00 0.00 63 1013.4
20260502220221 7 76 1.6 1.6 0.00 0.00 0.00 62 1013.3
20260502215718 7 224 8.0 9.7 0.00 0.00 0.00 61 1013.6
20260502215215 7 129 0.0 1.6 0.00 0.00 0.00 61 1013.4
20260502214713 8 291 3.2 4.8 0.00 0.00 0.00 61 1013.4
20260502214210 8 222 1.6 4.8 0.00 0.00 0.00 62 1013.3
20260502213707 8 133 0.0 0.0 0.00 0.00 0.00 62 1013.3
20260502213204 8 88 0.0 1.6 0.00 0.00 0.00 61 1013.0
20260502212702 8 49 1.6 1.6 0.00 0.00 0.00 60 1013.1
20260502212200 8 291 1.6 1.6 0.00 0.00 0.00 59 1013.1
20260502211656 8 126 0.0 0.0 0.00 0.00 0.00 60 1013.1
20260502211153 8 44 4.8 6.4 0.00 0.00 0.00 60 1012.8
20260502210650 8 303 6.4 9.7 0.00 0.00 0.00 60 1012.9
20260502210147 7 11 3.2 4.8 0.00 0.00 0.00 63 1012.9
20260502205644 7 32 4.8 6.4 0.00 0.00 0.00 64 1012.8
20260502205141 7 87 1.6 1.6 0.00 0.00 0.00 66 1012.8
20260502204638 7 121 0.0 0.0 0.00 0.00 0.00 67 1012.9
20260502204135 7 136 0.0 0.0 0.00 0.00 0.00 65 1012.9
20260502203632 7 122 0.0 1.6 0.00 0.00 0.00 66 1012.9
20260502203131 7 28 4.8 4.8 0.00 0.00 0.00 65 1013.0
20260502202625 8 130 0.0 1.6 0.00 0.00 0.00 66 1012.9
20260502202124 7 15 1.6 1.6 0.00 0.00 0.00 67 1013.0
20260502201620 8 94 1.6 4.8 0.00 0.00 0.00 66 1012.9
20260502201116 8 33 4.8 6.4 0.00 0.00 0.00 65 1012.9
20260502200612 8 117 1.6 1.6 0.00 0.00 0.00 62 1013.0
20260502200110 9 318 9.7 11.3 0.00 0.00 0.00 56 1012.8
20260502195608 9 260 3.2 4.8 0.00 0.00 0.00 54 1012.9
20260502195103 9 110 4.8 6.4 0.00 0.00 0.00 51 1012.5
20260502194600 10 217 3.2 4.8 0.00 0.00 0.00 51 1012.5
20260502194056 10 196 4.8 4.8 0.00 0.00 0.00 49 1012.8
20260502193554 10 267 4.8 6.4 0.00 0.00 0.00 49 1013.0
20260502193050 10 127 1.6 1.6 0.00 0.00 0.00 49 1013.0
20260502192546 11 196 4.8 6.4 0.00 0.00 0.00 50 1012.9
20260502192044 10 147 1.6 1.6 0.00 0.00 0.00 50 1013.1
20260502191540 10 123 0.0 0.0 0.00 0.00 0.00 51 1013.1
20260502191038 10 160 6.4 6.4 0.00 0.00 0.00 51 1013.6
20260502190536 10 128 1.6 4.8 0.00 0.00 0.00 51 1013.4
20260502190032 9 295 4.8 4.8 0.00 0.00 0.00 51 1013.4
20260502185527 9 87 1.6 1.6 0.00 0.00 0.00 51 1013.4
20260502185024 8 95 0.0 1.6 0.00 0.00 0.00 52 1013.6